Weather History for Clinton, NC

Change the Weather History Date:

Tuesday, December 24, 2013

  Actual Average (KFAY) Record (KFAY)
Temperature  
Mean Temperature 42 °F 43 °F  
Max Temperature 49 °F 53 °F 78 °F (1931)
Min Temperature 34 °F 34 °F 14 °F (1989)
Degree Days  
Heating Degree Days 22 22  
Month to date heating degree days 457  
Since 1 July heating degree days 905  
Cooling Degree Days 0 0  
Month to date cooling degree days 0  
Year to date cooling degree days 1991  
Growing Degree Days 0 (Base 50)    
Moisture  
Dew Point 36 °F    
Average Humidity 74    
Maximum Humidity 100    
Minimum Humidity 54    
Precipitation  
Precipitation 0.11 in 0.08 in 1.45 in (1941)
Month to date precipitation 2.18  
Year to date precipitation 43.99  
Sea Level Pressure  
Sea Level Pressure 30.25 in    
Wind  
Wind Speed 7 mph (North)    
Max Wind Speed 13 mph    
Max Gust Speed 22 mph    
Visibility 10 miles    
Events Rain    
T = Trace of Precipitation, MM = Missing Value Source: NWS Daily Summary

Daily Weather History Graph

Daily Weather History Graph

Search for Another Location

Airport:

Trip Planner

Search our weather history database for the weather conditions in past years. The results will help you decide how hot, cold, wet, or windy it might be!

Date:

Astronomy

Dec. 24, 2013 Rise Set
Actual Time 7:19 AM EST 5:07 PM EST
Civil Twilight 6:50 AM EST 5:35 PM EST
Nautical Twilight 6:19 AM EST 6:07 PM EST
Astronomical Twilight 5:48 AM EST 6:38 PM EST
Moon 11:58 PM EST (12/24) 11:26 AM EST (12/24)
Length of Visible Light 10h 44m
Length of Day
9h 48m
Waning Gibbous, 59% of the Moon is Illuminated
Dec 24
Waning Gibbous
Dec 25
Last Quarter
Jan 1
New
Jan 7
First Quarter
Jan 15
Full

Hourly Weather History & Observations

Time (EST) Temp. Windchill Dew Point Humidity Pressure Visibility Wind Dir Wind Speed Gust Speed Precip Events Conditions
12:15 AM 50.4 °F - 49.8 °F 98% 30.12 in 10.0 mi NNW 6.9 mph - N/A Rain Light Rain
12:35 AM 49.6 °F - 49.1 °F 98% 30.11 in 5.0 mi North 6.9 mph - 0.01 in Rain Rain
12:55 AM 49.1 °F - 49.1 °F 100% 30.11 in 5.0 mi North 6.9 mph - 0.04 in Rain Rain
1:15 AM 49.1 °F - 49.1 °F 100% 30.12 in 10.0 mi West 8.1 mph - 0.01 in   Drizzle
1:35 AM 48.6 °F - 48.4 °F 99% 30.11 in 10.0 mi NNE 9.2 mph - 0.01 in Rain Rain
1:55 AM 48.2 °F - 48.2 °F 100% 30.11 in 10.0 mi North 9.2 mph - 0.01 in   Drizzle
2:15 AM 48.0 °F - 48.0 °F 100% 30.11 in 10.0 mi North 6.9 mph - 0.01 in   Overcast
2:35 AM 48.2 °F - 47.8 °F 99% 30.11 in 10.0 mi North 5.8 mph - 0.01 in   Light Drizzle
2:55 AM 48.0 °F - 47.8 °F 99% 30.13 in 5.0 mi NNW 8.1 mph - 0.01 in   Overcast
3:15 AM 47.7 °F - 47.7 °F 100% 30.12 in 3.0 mi NNW 4.6 mph - N/A   Drizzle
3:35 AM 48.0 °F - 48.0 °F 100% 30.10 in 5.0 mi NNE 8.1 mph - 0.02 in Rain Light Rain
3:55 AM 48.2 °F - 48.2 °F 100% 30.11 in 7.0 mi North 5.8 mph - 0.04 in Rain Rain
4:15 AM 45.7 °F 39.8 °F 44.4 °F 95% 30.12 in 10.0 mi NNE 12.7 mph 21.9 mph N/A Rain Rain
4:35 AM 43.9 °F 37.9 °F 41.7 °F 92% 30.11 in 10.0 mi NNE 11.5 mph 19.6 mph N/A   Overcast
4:55 AM 43.9 °F 37.9 °F 41.2 °F 90% 30.11 in 10.0 mi NNE 11.5 mph 16.1 mph N/A Rain Light Rain
5:15 AM 44.2 °F 39.7 °F 41.2 °F 89% 30.13 in 10.0 mi North 8.1 mph - N/A   Overcast
5:35 AM 43.9 °F 40.5 °F 42.1 °F 93% 30.14 in 10.0 mi North 5.8 mph - 0.01 in Rain Light Rain
5:55 AM 44.1 °F 40.8 °F 42.8 °F 95% 30.14 in 10.0 mi North 5.8 mph - 0.01 in   Overcast
6:15 AM 44.2 °F 41.0 °F 41.0 °F 88% 30.15 in 10.0 mi North 5.8 mph - N/A   Overcast
6:35 AM 44.2 °F 40.3 °F 40.3 °F 86% 30.18 in 10.0 mi NNW 6.9 mph - N/A   Overcast
6:55 AM 44.1 °F 40.8 °F 41.0 °F 89% 30.19 in 10.0 mi North 5.8 mph - N/A   Overcast
7:15 AM 44.1 °F 42.5 °F 40.3 °F 87% 30.19 in 10.0 mi North 3.5 mph - N/A   Overcast
7:35 AM 43.7 °F 39.1 °F 37.2 °F 78% 30.20 in 10.0 mi NNE 8.1 mph - N/A   Overcast
7:55 AM 43.3 °F 39.2 °F 35.8 °F 75% 30.21 in 10.0 mi North 6.9 mph - N/A   Overcast
8:15 AM 43.0 °F 38.8 °F 35.4 °F 75% 30.22 in 10.0 mi North 6.9 mph - N/A   Overcast
8:35 AM 42.4 °F 39.6 °F 35.1 °F 75% 30.23 in 10.0 mi NNE 4.6 mph - N/A   Scattered Clouds
8:55 AM 44.2 °F 41.0 °F 36.5 °F 74% 30.24 in 10.0 mi North 5.8 mph - N/A   Scattered Clouds
9:15 AM 43.7 °F 40.3 °F 37.0 °F 77% 30.23 in 10.0 mi NNE 5.8 mph - N/A   Mostly Cloudy
9:35 AM 44.2 °F 40.3 °F 36.9 °F 75% 30.25 in 10.0 mi NNE 6.9 mph - N/A   Scattered Clouds
9:55 AM 44.6 °F 39.7 °F 35.1 °F 69% 30.26 in 10.0 mi NNW 9.2 mph - N/A   Overcast
10:15 AM 44.6 °F 39.7 °F 32.9 °F 64% 30.26 in 10.0 mi NNE 9.2 mph - N/A   Overcast
10:35 AM 44.8 °F 41.0 °F 32.4 °F 62% 30.26 in 10.0 mi North 6.9 mph - N/A   Overcast
10:55 AM 45.7 °F 41.0 °F 33.8 °F 63% 30.26 in 10.0 mi North 9.2 mph - N/A   Scattered Clouds
11:15 AM 46.9 °F - 33.6 °F 60% 30.25 in 10.0 mi North 4.6 mph - N/A   Clear
11:35 AM 47.8 °F - 35.1 °F 61% 30.24 in 10.0 mi NNW 6.9 mph - N/A   Scattered Clouds
11:55 AM 47.3 °F - 32.0 °F 55% 30.24 in 10.0 mi NNW 9.2 mph 16.1 mph N/A   Scattered Clouds
12:15 PM 48.0 °F - 34.7 °F 60% 30.24 in 10.0 mi NW 9.2 mph - N/A   Clear
12:35 PM 47.5 °F - 32.7 °F 57% 30.24 in 10.0 mi NW 8.1 mph 16.1 mph N/A   Clear
12:55 PM 48.2 °F - 34.0 °F 58% 30.23 in 10.0 mi NNW 10.4 mph - N/A   Clear
1:15 PM 48.0 °F - 32.0 °F 54% 30.24 in 10.0 mi North 6.9 mph - N/A   Clear
1:35 PM 48.6 °F - 33.6 °F 56% 30.24 in 10.0 mi NNW 4.6 mph - N/A   Scattered Clouds
1:55 PM 48.7 °F - 33.1 °F 55% 30.24 in 10.0 mi WNW 6.9 mph - N/A   Scattered Clouds
2:15 PM 49.3 °F - 34.5 °F 57% 30.23 in 10.0 mi NNW 4.6 mph - N/A   Scattered Clouds
2:35 PM 48.6 °F - 34.9 °F 59% 30.24 in 10.0 mi NW 8.1 mph - N/A   Scattered Clouds
2:55 PM 48.6 °F - 34.7 °F 59% 30.24 in 10.0 mi WNW 5.8 mph 16.1 mph N/A   Clear
3:15 PM 48.9 °F - 34.2 °F 57% 30.26 in 10.0 mi NW 8.1 mph - N/A   Scattered Clouds
3:35 PM 48.4 °F - 33.1 °F 56% 30.26 in 10.0 mi WNW 10.4 mph - N/A   Scattered Clouds
3:55 PM 48.2 °F - 32.9 °F 55% 30.26 in 10.0 mi NNW 9.2 mph - N/A   Scattered Clouds
4:15 PM 47.3 °F - 32.0 °F 55% 30.27 in 10.0 mi NW 8.1 mph - N/A   Clear
4:35 PM 46.9 °F - 31.8 °F 56% 30.28 in 10.0 mi NNW 8.1 mph - N/A   Clear
4:55 PM 45.7 °F 42.0 °F 30.0 °F 54% 30.29 in 10.0 mi NW 6.9 mph 16.1 mph N/A   Clear
5:15 PM 45.0 °F - 30.9 °F 58% 30.30 in 10.0 mi Calm Calm - N/A   Clear
5:35 PM 43.9 °F - 31.8 °F 63% 30.31 in 10.0 mi Calm Calm - N/A   Clear
5:55 PM 43.2 °F - 32.0 °F 65% 30.32 in 10.0 mi Calm Calm - N/A   Clear
6:15 PM 42.8 °F 41.1 °F 31.8 °F 65% 30.33 in 10.0 mi NNW 3.5 mph - N/A   Clear
6:35 PM 42.4 °F - 31.5 °F 65% 30.34 in 10.0 mi Calm Calm - N/A   Clear
6:55 PM 42.1 °F - 30.9 °F 65% 30.35 in 10.0 mi Calm Calm - N/A   Clear
7:15 PM 41.7 °F - 30.9 °F 66% 30.36 in 10.0 mi Calm Calm - N/A   Clear
7:35 PM 39.2 °F - 34.3 °F 83% 30.36 in 10.0 mi Calm Calm - N/A   Clear
7:55 PM 38.3 °F - 33.3 °F 82% 30.37 in 10.0 mi Calm Calm - N/A   Clear
8:15 PM 37.6 °F - 32.7 °F 83% 30.38 in 10.0 mi Calm Calm - N/A   Clear
8:35 PM 36.7 °F - 33.3 °F 87% 30.39 in 10.0 mi Calm Calm - N/A   Clear
8:55 PM 38.3 °F 34.8 °F 31.3 °F 76% 30.40 in 10.0 mi North 4.6 mph - N/A   Clear
9:15 PM 39.6 °F 34.7 °F 28.9 °F 66% 30.41 in 10.0 mi NNW 6.9 mph - N/A   Clear
9:35 PM 39.2 °F 35.9 °F 27.0 °F 62% 30.41 in 10.0 mi North 4.6 mph - N/A   Clear
9:55 PM 38.5 °F 35.0 °F 26.2 °F 61% 30.41 in 10.0 mi North 4.6 mph - N/A   Clear
10:15 PM 38.1 °F 33.7 °F 24.8 °F 59% 30.43 in 10.0 mi North 5.8 mph - N/A   Clear
10:35 PM 37.4 °F 33.8 °F 24.6 °F 60% 30.43 in 10.0 mi North 4.6 mph - N/A   Clear
10:55 PM 36.9 °F 31.4 °F 23.4 °F 58% 30.44 in 10.0 mi North 6.9 mph - N/A   Clear
11:15 PM 36.1 °F 31.4 °F 22.3 °F 57% 30.44 in 10.0 mi North 5.8 mph - N/A   Clear
11:35 PM 35.6 °F 30.7 °F 21.0 °F 55% 30.44 in 10.0 mi North 5.8 mph - N/A   Clear
11:55 PM 34.9 °F 29.9 °F 20.5 °F 56% 30.45 in 10.0 mi North 5.8 mph - N/A   Clear